Cooperstown, ND

5:56 PM CDT on March 24, 2017 (GMT -0500)
Cooperstown

Weather History for KS32 - October, 2011

Change the Weather History Date:

Saturday, October 8, 2011

  Actual Average (KJMS) Record (KJMS)
Temperature  
Mean Temperature 55 °F -  
Max Temperature 59 °F 58 °F 88 °F (1936)
Min Temperature 51 °F 35 °F 2 °F (1895)
Degree Days  
Heating Degree Days 10    
Growing Degree Days 5 (Base 50)    
Moisture  
Dew Point 47 °F    
Average Humidity 72    
Maximum Humidity 88    
Minimum Humidity 59    
Precipitation  
Precipitation 0.00 in - - ()
Sea Level Pressure  
Sea Level Pressure 29.94 in    
Wind  
Wind Speed 17 mph (West)    
Max Wind Speed 24 mph    
Max Gust Speed 33 mph    
Visibility 10 miles    
Events      
Averages and records for this station are not official NWS values.
T = Trace of Precipitation, MM = Missing Value Source: NWS Daily Summary

Daily Weather History Graph

Daily Weather History Graph

Search for Another Location

Airport or City:

Trip Planner

Search our weather history database for the weather conditions in past years. The results will help you decide how hot, cold, wet, or windy it might be!

Date:

Astronomy

Oct. 08, 2011 Rise Set
Actual Time 7:40 AM CDT 6:58 PM CDT
Civil Twilight 7:10 AM CDT 7:29 PM CDT
Nautical Twilight 6:34 AM CDT 8:04 PM CDT
Astronomical Twilight 5:58 AM CDT 8:40 PM CDT
Moon 5:17 PM CDT (10/8) 4:18 AM CDT (10/8)
Length of Visible Light 12h 19m
Length of Day
11h 17m
Waxing Gibbous, 90% of the Moon is Illuminated
Oct 8
Waxing Gibbous
Oct 11
Full
Oct 19
Last Quarter
Oct 26
New
Nov 2
First Quarter

Hourly Weather History & Observations

Time (CDT) Temp. Dew Point Humidity Pressure Visibility Wind Dir Wind Speed Gust Speed Precip Events Conditions
12:15 AM 57.2 °F 48.2 °F 72% 29.66 in 10.0 mi WSW 24.2 mph 32.2 mph N/A   Clear
12:35 AM 57.2 °F 48.2 °F 72% 29.68 in 10.0 mi WSW 23.0 mph 31.1 mph N/A   Clear
12:55 AM 57.2 °F 48.2 °F 72% 29.68 in 10.0 mi WSW 21.9 mph 29.9 mph N/A   Clear
1:15 AM 57.2 °F 48.2 °F 72% 29.69 in 10.0 mi WSW 23.0 mph 29.9 mph N/A   Clear
1:35 AM 55.4 °F 48.2 °F 77% 29.69 in 10.0 mi WSW 20.7 mph 29.9 mph N/A   Clear
1:55 AM 55.4 °F 48.2 °F 77% 29.71 in 10.0 mi WSW 19.6 mph 26.5 mph N/A   Clear
2:15 AM 55.4 °F 48.2 °F 77% 29.73 in 10.0 mi WSW 16.1 mph 23.0 mph N/A   Clear
2:35 AM 55.4 °F 50.0 °F 82% 29.74 in 10.0 mi SW 19.6 mph 25.3 mph N/A   Partly Cloudy
2:55 AM 55.4 °F 50.0 °F 82% 29.74 in 10.0 mi SW 18.4 mph - N/A   Mostly Cloudy
3:35 AM 57.2 °F 50.0 °F 77% 29.75 in 10.0 mi WSW 20.7 mph 33.4 mph N/A   Overcast
3:55 AM 57.2 °F 50.0 °F 77% 29.77 in 10.0 mi West 18.4 mph 27.6 mph N/A   Overcast
4:15 AM 57.2 °F 48.2 °F 72% 29.76 in 10.0 mi West 19.6 mph 28.8 mph N/A   Mostly Cloudy
4:35 AM 55.4 °F 48.2 °F 77% 29.78 in 10.0 mi West 15.0 mph - N/A   Partly Cloudy
4:55 AM 55.4 °F 48.2 °F 77% 29.80 in 10.0 mi WSW 12.7 mph - N/A   Clear
5:15 AM 55.4 °F 48.2 °F 77% 29.81 in 10.0 mi WSW 15.0 mph - N/A   Clear
5:35 AM 55.4 °F 48.2 °F 77% 29.82 in 10.0 mi SW 13.8 mph - N/A   Mostly Cloudy
5:55 AM 53.6 °F 48.2 °F 82% 29.85 in 10.0 mi SW 13.8 mph - N/A   Scattered Clouds
6:15 AM 53.6 °F 48.2 °F 82% 29.86 in 10.0 mi WSW 17.3 mph 23.0 mph N/A   Partly Cloudy
6:55 AM 53.6 °F 48.2 °F 82% 29.87 in 10.0 mi WSW 15.0 mph 20.7 mph N/A   Clear
7:15 AM 53.6 °F 48.2 °F 82% 29.88 in 10.0 mi WSW 15.0 mph - N/A   Clear
7:35 AM 53.6 °F 48.2 °F 82% 29.88 in 10.0 mi WSW 16.1 mph - N/A   Clear
7:55 AM 51.8 °F 48.2 °F 88% 29.89 in 10.0 mi West 15.0 mph - N/A   Clear
8:15 AM 51.8 °F 48.2 °F 88% 29.90 in 10.0 mi WSW 15.0 mph - N/A   Clear
8:35 AM 51.8 °F 48.2 °F 88% 29.91 in 10.0 mi WSW 15.0 mph 20.7 mph N/A   Clear
8:55 AM 53.6 °F 48.2 °F 82% 29.91 in 10.0 mi West 16.1 mph 20.7 mph N/A   Clear
9:15 AM 53.6 °F 48.2 °F 82% 29.91 in 10.0 mi West 19.6 mph 25.3 mph N/A   Clear
9:35 AM 53.6 °F 48.2 °F 82% 29.93 in 10.0 mi West 17.3 mph - N/A   Clear
9:55 AM 53.6 °F 48.2 °F 82% 29.95 in 10.0 mi West 15.0 mph 21.9 mph N/A   Clear
10:15 AM 55.4 °F 46.4 °F 72% 29.96 in 10.0 mi WNW 18.4 mph - N/A   Clear
10:35 AM 55.4 °F 48.2 °F 77% 29.98 in 10.0 mi West 17.3 mph 21.9 mph N/A   Clear
10:55 AM 55.4 °F 48.2 °F 77% 29.99 in 10.0 mi West 17.3 mph 21.9 mph N/A   Clear
11:15 AM 57.2 °F 48.2 °F 72% 29.98 in 10.0 mi West 17.3 mph 21.9 mph N/A   Partly Cloudy
12:15 PM 57.2 °F 46.4 °F 67% 30.00 in 10.0 mi West 17.3 mph 27.6 mph N/A   Mostly Cloudy
12:35 PM 57.2 °F 46.4 °F 67% 30.00 in 10.0 mi NW 15.0 mph 21.9 mph N/A   Overcast
12:55 PM 59.0 °F 46.4 °F 63% 30.01 in 10.0 mi WNW 15.0 mph 20.7 mph N/A   Overcast
1:15 PM 59.0 °F 46.4 °F 63% 30.00 in 10.0 mi WNW 19.6 mph 23.0 mph N/A   Overcast
1:35 PM 59.0 °F 46.4 °F 63% 30.01 in 10.0 mi NW 15.0 mph 26.5 mph N/A   Scattered Clouds
1:55 PM 59.0 °F 46.4 °F 63% 30.02 in 10.0 mi West 18.4 mph - N/A   Mostly Cloudy
2:15 PM 57.2 °F 46.4 °F 67% 30.03 in 10.0 mi West 13.8 mph 19.6 mph N/A   Overcast
2:35 PM 57.2 °F 46.4 °F 67% 30.03 in 10.0 mi West 13.8 mph 18.4 mph N/A   Overcast
2:55 PM 57.2 °F 46.4 °F 67% 30.03 in 10.0 mi West 12.7 mph - N/A   Overcast
3:15 PM 57.2 °F 46.4 °F 67% 30.03 in 10.0 mi West 11.5 mph - N/A   Overcast
3:35 PM 59.0 °F 46.4 °F 63% 30.03 in 10.0 mi West 9.2 mph - N/A   Mostly Cloudy
3:55 PM 59.0 °F 46.4 °F 63% 30.02 in 10.0 mi WNW 10.4 mph - N/A   Overcast
4:15 PM 59.0 °F 44.6 °F 59% 30.03 in 10.0 mi NW 11.5 mph 17.3 mph N/A   Mostly Cloudy
4:35 PM 59.0 °F 46.4 °F 63% 30.03 in 10.0 mi NW 11.5 mph - N/A   Mostly Cloudy
4:55 PM 59.0 °F 46.4 °F 63% 30.04 in 10.0 mi NW 10.4 mph - N/A   Mostly Cloudy
5:15 PM 59.0 °F 46.4 °F 63% 30.06 in 10.0 mi WNW 9.2 mph - N/A   Scattered Clouds
5:35 PM 59.0 °F 46.4 °F 63% 30.07 in 10.0 mi WNW 9.2 mph - N/A   Mostly Cloudy
5:55 PM 57.2 °F 46.4 °F 67% 30.07 in 10.0 mi NW 9.2 mph - N/A   Partly Cloudy
6:15 PM 57.2 °F 44.6 °F 63% 30.08 in 10.0 mi NW 11.5 mph - N/A   Clear
6:35 PM 57.2 °F 44.6 °F 63% 30.09 in 10.0 mi NW 6.9 mph - N/A   Partly Cloudy
7:15 PM 55.4 °F 44.6 °F 67% 30.12 in 10.0 mi WNW 8.1 mph - N/A   Clear
7:35 PM 55.4 °F 44.6 °F 67% 30.12 in 10.0 mi NW 9.2 mph - N/A   Partly Cloudy
7:55 PM 55.4 °F 44.6 °F 67% 30.13 in 10.0 mi NW 13.8 mph - N/A   Partly Cloudy
8:15 PM 55.4 °F 44.6 °F 67% 30.14 in 10.0 mi NW 9.2 mph - N/A   Clear
8:35 PM 53.6 °F 44.6 °F 72% 30.14 in 10.0 mi NW 10.4 mph - N/A   Clear
8:55 PM 53.6 °F 42.8 °F 67% 30.15 in 10.0 mi NW 9.2 mph - N/A   Clear
9:15 PM 53.6 °F 41.0 °F 62% 30.15 in 10.0 mi NW 9.2 mph - N/A   Clear
9:35 PM 53.6 °F 41.0 °F 62% 30.16 in 10.0 mi NW 9.2 mph - N/A   Clear
9:55 PM 53.6 °F 41.0 °F 62% 30.16 in 10.0 mi NNW 8.1 mph - N/A   Clear
10:15 PM 53.6 °F 41.0 °F 62% 30.17 in 10.0 mi NW 8.1 mph - N/A   Clear
10:35 PM 51.8 °F 42.8 °F 71% 30.18 in 10.0 mi NNW 6.9 mph - N/A   Partly Cloudy
10:55 PM 50.0 °F 42.8 °F 76% 30.18 in 10.0 mi NNW 5.8 mph - N/A   Clear
11:15 PM 50.0 °F 42.8 °F 76% 30.19 in 10.0 mi NW 4.6 mph - N/A   Clear
11:35 PM 50.0 °F 42.8 °F 76% 30.19 in 10.0 mi WNW 4.6 mph - N/A   Partly Cloudy
11:55 PM 50.0 °F 42.8 °F 76% 30.20 in 10.0 mi WNW 3.5 mph - N/A   Partly Cloudy